User: anonymous   Login
Location: Canazei
(46.4667°N, 11.7667°E)
Time: 22:08:29
(UTC+00:00)
Language:

Envisat - Orbit

View from above orbital plane
View from above orbital plane
View from above satellite
View from above satellite

Ground track
Ground track

The orbit data is extracted from the following two-line orbital elements,

1 27386U 02009A   21293.56102962  .00000058  00000-0  32789-4 0  9991
2 27386  98.1600 281.2918 0001222  90.3507  19.8497 14.38048449 29053
Epoch (UTC): 20 October 2021 13:27:52
Eccentricity: 0.0001222
inclination: 98.1600°
perigee height: 764 km
apogee height: 766 km
right ascension of ascending node: 281.2918°
argument of perigee: 90.3507°
revolutions per day: 14.38048449
mean anomaly at epoch: 19.8497°
orbit number at epoch: 2905

The dashed part of the orbit path shows where the satellite is in the earth's shadow,  

DLR